Dewpoint
61 48 45 37 31 23 22 23 25 25 25 27 28 43 43 48 47 45 63 67 72 74 76 76 77 77 77 76 76 75 75 75 75 74 74 75 75 75 76 76 76 76 75 74 73 72 72 71 71
48 39 35 31 26 22 23 23 23 26 27 27 25 39 50 49 60 59 63 68 71 74 76 76 77 77 77 76 76 75 75 75 75 75 74 75 75 75 75 76 76 75 74 74 73 72 72 71 72
52 38 32 31 23 21 18 23 24 26 26 26 23 37 56 53 62 57 63 69 72 74 76 76 77 77 77 76 76 75 75 75 75 76 74 74 75 75 76 76 76 74 73 73 73 72 72 72 72
35 27 24 21 24 21 20 22 24 22 23 24 25 21 58 61 61 62 70 71 72 74 75 77 77 77 76 76 76 75 75 75 75 75 75 74 74 75 76 76 75 74 73 73 73 72 72 72 72
31 24 21 17 19 19 19 21 23 23 23 24 20 22 56 61 65 69 70 70 71 73 76 76 77 76 76 76 76 75 75 75 75 75 75 74 75 75 75 75 75 74 73 73 72 72 72 71 71
27 24 17 14 14 17 17 18 18 18 19 18 19 49 59 65 67 69 70 69 71 73 75 76 76 76 76 76 76 75 75 75 75 75 75 75 75 75 75 75 74 74 73 72 72 72 72 71 71
27 20 20 13 10 10 14 15 14 16 17 16 21 57 60 66 67 69 68 68 70 74 74 74 75 76 76 76 76 75 74 75 75 75 75 75 75 75 75 75 74 74 74 73 72 72 71 71 71
32 30 27 16 11 11 10 9 9 10 5 14 20 50 54 65 68 68 68 70 72 73 73 73 72 74 74 75 76 75 75 75 74 75 75 75 75 75 75 74 74 74 74 73 73 72 72 72 71
33 29 25 22 16 10 11 4 8 9 4 17 12 39 58 68 68 67 70 71 71 72 72 72 72 74 74 74 74 75 75 74 74 74 75 74 72 73 74 74 74 74 74 74 73 73 72 72 71
32 29 25 24 20 18 16 18 19 18 19 18 16 21 64 68 67 67 68 69 69 69 71 71 71 71 70 71 72 73 72 73 73 72 72 71 71 71 73 73 74 74 74 73 73 73 72 71 68
30 28 26 28 27 26 23 24 23 20 19 17 12 18 65 67 66 67 68 68 68 69 70 71 71 70 70 70 72 73 71 72 72 72 71 70 70 70 71 70 71 71 72 71 71 70 70 68 67
20 26 27 28 28 29 28 26 24 22 22 22 23 25 45 66 66 66 67 67 69 70 70 71 70 71 71 71 71 70 71 71 72 71 70 68 68 68 69 69 69 71 71 69 69 69 69 68 66
22 20 21 25 29 30 29 28 27 26 26 26 25 23 29 65 65 66 67 68 68 69 70 70 72 71 72 71 71 71 71 71 71 71 70 68 67 67 68 68 69 70 70 70 68 68 67 66 64
26 23 21 21 22 23 26 25 25 23 24 23 24 22 17 63 64 65 67 67 67 68 70 70 69 70 71 70 71 70 70 70 70 70 70 68 67 66 67 66 68 69 69 69 68 67 66 67 66
27 25 25 24 23 23 22 20 20 20 20 21 23 22 16 33 52 64 67 67 67 67 68 68 68 69 69 68 68 69 68 69 68 68 69 67 66 67 67 66 67 68 69 68 68 66 66 65 62
33 32 29 25 23 24 22 21 23 24 23 24 24 22 18 30 41 63 66 66 66 67 67 67 66 67 67 67 68 68 68 68 67 67 68 68 65 67 69 69 68 68 67 66 65 64 62 61 60
30 29 31 29 28 22 22 21 23 25 23 23 24 24 20 18 56 61 66 66 65 66 66 66 67 67 66 66 67 68 68 68 68 67 67 68 68 70 69 68 66 65 65 64 63 61 60 58 57
26 31 31 29 26 23 21 21 22 22 22 23 23 24 23 19 35 66 65 66 66 66 66 65 66 67 68 68 67 68 68 68 68 67 67 69 70 70 67 65 65 64 63 62 61 59 58 57 56
23 23 25 29 28 27 24 22 20 22 21 20 22 23 22 20 23 67 67 66 66 67 66 66 67 67 68 69 67 67 68 68 69 69 69 70 70 68 66 65 64 63 62 61 59 59 58 56 56
20 19 19 22 25 25 28 26 26 23 22 22 22 23 22 22 50 66 67 67 66 66 66 66 66 66 67 71 69 68 69 69 70 70 70 70 69 67 66 65 63 62 60 59 59 58 58 56 56
20 19 19 18 19 18 21 23 24 27 23 22 22 23 23 23 54 64 65 66 66 65 65 65 65 65 66 70 70 70 70 69 68 69 69 69 68 67 66 65 63 62 60 59 58 58 56 54 58
21 24 24 24 19 15 23 20 21 23 22 22 22 21 23 23 49 61 65 65 65 65 65 65 65 66 67 68 70 69 68 67 67 69 68 67 67 66 65 63 62 61 59 59 58 60 59 57 56
13 22 26 28 25 25 24 18 19 21 20 21 22 23 22 23 52 58 63 65 65 65 65 65 65 67 67 68 69 68 68 68 68 67 66 65 65 65 64 63 62 60 59 57 59 59 58 57 55
21 29 29 29 27 23 22 18 16 18 20 21 22 23 24 23 42 58 60 63 64 64 65 65 65 66 62 64 66 67 68 68 67 65 65 64 63 63 62 62 61 60 59 60 59 58 56 55 54
32 29 23 20 22 20 22 20 18 21 21 20 21 22 25 25 28 57 58 61 61 62 63 63 63 63 62 62 67 67 68 67 66 64 63 63 61 61 60 61 60 59 59 57 57 56 54 54 53
28 29 24 14 15 13 20 20 21 22 22 23 23 23 24 25 24 51 59 59 60 60 61 62 63 64 65 62 66 68 67 66 65 63 63 61 61 61 60 59 58 56 56 55 56 55 55 54 54
33 28 28 25 28 26 25 24 20 20 21 23 22 21 22 25 26 35 61 59 59 60 59 61 62 66 67 67 68 66 65 64 62 62 62 61 61 59 58 57 56 55 54 54 53 52 52 52 52
32 33 29 31 17 21 24 24 19 20 20 20 23 32 33 26 27 29 59 60 60 59 58 60 62 66 68 68 66 64 63 63 62 62 61 59 57 55 54 54 54 52 51 50 49 49 48 48 49
34 33 35 30 26 18 19 23 25 23 25 22 24 35 38 34 28 29 56 59 59 57 58 62 64 67 66 65 63 63 62 62 61 60 58 56 54 53 52 51 49 48 47 46 45 45 44 44 44
34 33 36 31 24 27 24 20 27 31 35 36 35 36 43 42 33 33 56 60 58 59 64 65 66 65 63 62 61 61 61 60 58 57 55 52 50 49 48 46 45 44 43 43 43 43 42 42 42
Lifted_Index
8 11 12 10 7 5 3 2 2 2 2 3 3 2 1 0 -0 -1 -1 -2 -3 -5 -5 -5 -5 -4 -4 -3 -3 -2 -2 -2 -2 -2 -2 -2 -2 -2 -3 -3 -3 -3 -2 -2 -1 -1 -0 -0 -0
10 12 12 9 6 4 3 2 2 2 3 3 3 2 0 -1 -1 -1 -2 -3 -4 -5 -5 -5 -5 -5 -4 -3 -3 -2 -2 -2 -2 -2 -2 -2 -3 -3 -3 -3 -3 -3 -2 -2 -1 -1 -0 -0 -0
12 12 11 7 5 3 2 2 2 2 3 4 4 2 -0 -2 -2 -2 -2 -3 -4 -5 -5 -5 -5 -5 -4 -3 -3 -3 -2 -2 -3 -3 -3 -3 -3 -3 -3 -3 -3 -3 -2 -2 -1 -1 -1 -1 -1
12 12 9 6 4 3 3 3 3 3 3 4 4 3 -0 -2 -2 -2 -3 -3 -4 -4 -5 -5 -5 -5 -4 -3 -3 -3 -3 -3 -3 -4 -3 -3 -3 -3 -3 -3 -3 -3 -2 -2 -1 -1 -1 -1 -1
12 11 7 4 3 3 4 4 4 3 3 3 4 3 -0 -2 -2 -2 -3 -3 -3 -4 -5 -5 -5 -4 -4 -4 -4 -3 -3 -4 -4 -4 -4 -3 -3 -3 -3 -3 -3 -3 -2 -2 -1 -1 -1 -1 -1
11 9 5 3 3 3 4 5 5 4 3 3 3 1 -2 -3 -3 -3 -3 -2 -3 -4 -5 -5 -5 -4 -4 -4 -4 -4 -4 -4 -4 -4 -4 -4 -4 -4 -3 -3 -3 -3 -2 -2 -1 -1 -1 -1 -1
10 8 5 3 3 3 4 6 6 5 5 5 4 1 -2 -3 -3 -3 -2 -2 -3 -4 -4 -5 -5 -4 -4 -4 -4 -4 -4 -4 -4 -5 -5 -5 -4 -4 -4 -3 -3 -3 -3 -2 -2 -2 -1 -1 -1
10 8 6 4 4 4 5 6 7 7 6 6 6 3 0 -3 -4 -3 -2 -2 -3 -4 -4 -4 -4 -4 -4 -4 -4 -4 -4 -4 -4 -5 -5 -5 -5 -4 -4 -4 -3 -3 -3 -3 -3 -2 -2 -2 -2
10 8 6 5 5 5 5 6 8 8 8 7 7 5 1 -3 -4 -3 -2 -2 -2 -3 -4 -4 -3 -4 -4 -4 -4 -4 -4 -4 -4 -4 -5 -5 -4 -4 -4 -4 -4 -4 -4 -4 -3 -3 -3 -3 -2
10 8 7 6 6 6 7 7 8 8 8 7 7 5 -0 -4 -4 -3 -3 -2 -2 -3 -3 -3 -3 -3 -3 -3 -4 -4 -4 -4 -4 -4 -4 -4 -4 -4 -4 -4 -4 -4 -4 -4 -4 -3 -3 -2 -2
9 8 7 7 8 8 7 8 8 8 8 7 7 5 0 -3 -4 -4 -3 -2 -2 -2 -3 -2 -2 -2 -2 -3 -3 -3 -3 -4 -4 -4 -3 -3 -3 -4 -3 -3 -3 -4 -4 -3 -3 -2 -2 -1 -1
8 8 8 8 8 8 8 8 8 8 8 8 8 7 3 -2 -4 -4 -3 -2 -2 -2 -2 -2 -2 -2 -2 -2 -2 -2 -3 -3 -4 -4 -3 -3 -3 -3 -2 -2 -2 -3 -3 -3 -2 -2 -1 -1 -0
8 8 9 9 9 8 8 7 7 8 8 8 8 8 5 -2 -5 -5 -4 -2 -2 -2 -2 -2 -2 -3 -3 -3 -3 -3 -3 -3 -3 -3 -3 -3 -2 -2 -2 -1 -2 -2 -3 -2 -2 -1 -1 -1 -1
9 9 9 9 9 9 8 7 7 7 8 8 7 8 5 -2 -5 -5 -4 -3 -2 -3 -3 -3 -3 -3 -3 -3 -3 -3 -3 -3 -3 -3 -3 -2 -2 -1 -1 -1 -2 -2 -3 -3 -2 -2 -2 -2 -2
9 8 8 8 8 9 8 7 6 7 7 7 6 7 5 -0 -4 -5 -5 -4 -4 -4 -3 -3 -2 -2 -2 -2 -3 -2 -2 -2 -2 -2 -2 -2 -2 -2 -2 -2 -2 -2 -3 -3 -3 -3 -2 -2 -2
8 7 6 6 7 8 7 6 6 7 7 6 6 6 6 3 -1 -4 -5 -5 -5 -5 -4 -3 -2 -2 -2 -2 -2 -2 -2 -2 -2 -2 -2 -2 -2 -2 -2 -2 -3 -3 -3 -3 -3 -3 -2 -2 -2
5 5 5 5 6 7 6 5 6 7 7 6 6 6 6 5 1 -3 -5 -5 -5 -5 -5 -4 -2 -2 -2 -1 -1 -2 -2 -2 -2 -2 -3 -4 -3 -2 -3 -3 -4 -4 -3 -3 -2 -2 -2 -2 -2
4 4 5 5 6 6 6 6 6 6 6 6 5 5 5 5 3 -2 -5 -5 -5 -5 -5 -4 -3 -2 -2 -2 -2 -2 -3 -3 -3 -3 -4 -4 -4 -3 -3 -4 -4 -3 -3 -2 -2 -1 -1 -1 -1
5 5 5 5 5 6 6 6 6 7 6 5 5 5 5 5 3 -2 -4 -5 -5 -5 -5 -4 -3 -3 -2 -2 -2 -3 -3 -4 -4 -4 -4 -5 -5 -4 -4 -4 -4 -3 -2 -2 -1 -1 -0 0 0
6 6 6 6 5 6 6 5 6 7 6 6 6 6 5 5 3 -1 -4 -4 -4 -4 -4 -4 -3 -2 -3 -3 -4 -3 -4 -4 -4 -4 -5 -5 -5 -5 -4 -4 -3 -3 -2 -1 -0 0 1 2 2
5 6 6 5 5 5 5 4 5 6 6 6 6 6 6 6 4 -0 -3 -4 -4 -4 -4 -4 -3 -3 -3 -4 -5 -4 -4 -4 -5 -5 -6 -5 -5 -5 -4 -4 -3 -2 -1 -0 0 1 2 3 3
5 5 5 5 5 5 4 3 4 5 6 6 6 6 6 6 4 1 -2 -3 -4 -4 -4 -4 -3 -3 -3 -4 -5 -5 -5 -5 -5 -5 -6 -5 -5 -4 -4 -3 -2 -2 -1 1 2 3 3 4 4
3 4 5 5 5 5 4 3 3 4 5 5 5 6 6 6 4 1 -1 -2 -3 -4 -4 -3 -3 -3 -3 -3 -5 -5 -5 -5 -5 -5 -5 -5 -5 -4 -3 -2 -1 -0 1 2 3 3 3 4 4
2 2 3 4 4 4 5 4 3 4 5 5 5 6 6 6 4 1 -1 -2 -3 -3 -3 -3 -3 -2 -2 -3 -5 -5 -5 -4 -4 -4 -4 -4 -4 -4 -2 -1 -0 1 2 3 3 3 3 3 4
1 1 1 2 2 3 4 4 4 5 6 6 6 6 6 6 5 2 -0 -1 -2 -2 -3 -3 -3 -2 -3 -3 -4 -5 -5 -4 -4 -4 -4 -4 -4 -3 -2 -0 1 1 2 2 2 2 3 3 4
1 1 1 0 1 2 4 4 4 6 7 7 6 6 7 6 5 2 0 -1 -1 -2 -2 -2 -2 -2 -3 -3 -4 -4 -4 -4 -4 -4 -4 -4 -4 -2 -1 0 1 1 1 2 2 3 4 5 5
1 1 1 0 1 1 2 3 5 6 7 7 6 6 7 6 6 3 0 -1 -1 -1 -2 -2 -2 -3 -3 -3 -3 -4 -4 -4 -4 -4 -4 -4 -3 -2 -1 1 1 2 2 3 3 4 5 6 6
1 1 1 1 1 1 1 2 4 6 6 6 6 6 6 6 6 4 0 -1 -1 -1 -1 -2 -3 -3 -4 -4 -3 -4 -4 -4 -5 -4 -4 -3 -3 -1 0 1 2 3 3 4 5 6 6 6 6
1 1 1 1 1 1 1 2 3 5 6 6 6 6 5 5 5 4 1 -1 -1 -1 -1 -2 -3 -4 -4 -4 -4 -4 -4 -5 -4 -4 -3 -3 -2 -0 1 2 3 3 4 5 6 7 7 7 8
1 1 1 1 1 1 1 2 3 5 5 5 5 5 4 4 5 4 1 -1 -1 -1 -2 -3 -3 -4 -4 -5 -5 -5 -5 -5 -4 -3 -3 -2 -1 0 1 3 3 4 5 6 7 8 8 8 8